カタログに戻る

HULIANWANG DIGUI-142

運用中通信LEO
NORAD 67440·PAYLOAD·🇨🇳 China

打ち上げ Jan 13, 2026 から Wenchang Space Launch Site

Loading…

次のパス (今後24時間)

TLE

最新Source: Space-Track

元期: Sep 14, 2026, 16:16 UTC

1 67440U 26007F   26257.67781655 -.00000080  00000-0  95974-4 0  9990
2 67440  50.0113 124.8550 0000434   3.9182 356.1694 13.29330297 32695

AllMySatでHULIANWANG DIGUI-142をリアルタイム追跡

Download on the App Store